CW8217 Weather Reports


time (UTC)temp
C
wind
direction
speed
KPH
gust
KPH
rain 1hr
cm
rain 24hr
cm
rain mn
cm
humidity
%
barometer
mb
20260508145705 12 250 8.0 8.0 0.00 0.00 0.00 46 1017.5
20260508145205 12 250 8.0 8.0 0.00 0.00 0.00 50 1017.6
20260508144704 12 250 8.0 8.0 0.00 0.00 0.00 48 1017.6
20260508144205 12 250 8.0 8.0 0.00 0.00 0.00 47 1017.6
20260508143705 12 250 8.0 8.0 0.00 0.00 0.00 48 1017.5
20260508143205 12 250 8.0 8.0 0.00 0.00 0.00 49 1017.6
20260508142704 11 250 8.0 8.0 0.00 0.00 0.00 50 1017.5
20260508142205 11 250 8.0 8.0 0.00 0.00 0.00 50 1017.5
20260508141704 11 250 8.0 8.0 0.00 0.00 0.00 52 1017.6
20260508141205 11 250 8.0 8.0 0.00 0.00 0.00 54 1017.5
20260508140705 11 250 8.0 8.0 0.00 0.00 0.00 55 1017.5
20260508140205 11 251 8.0 8.0 0.00 0.00 0.00 57 1017.6
20260508135705 10 270 8.0 8.0 0.00 0.00 0.00 64 1017.6
20260508135205 10 270 8.0 8.0 0.00 0.00 0.00 61 1017.6
20260508134704 9 270 8.0 8.0 0.00 0.00 0.00 61 1017.6
20260508134205 9 270 8.0 8.0 0.00 0.00 0.00 64 1017.6
20260508132704 7 270 8.0 8.0 0.00 0.00 0.00 68 1017.2
20260508132205 6 270 8.0 8.0 0.00 0.00 0.00 69 1017.1
20260508131705 6 270 8.0 8.0 0.00 0.00 0.00 72 1017.1
20260508130705 5 270 8.0 8.0 0.00 0.00 0.00 77 1017.0
20260508130205 4 269 6.4 8.0 0.00 0.00 0.00 82 1017.0
20260508125704 3 250 4.8 4.8 0.00 0.00 0.00 83 1017.1
20260508125205 3 250 4.8 4.8 0.00 0.00 0.00 89 1017.2
20260508124704 2 250 4.8 4.8 0.00 0.00 0.00 90 1017.1
20260508124204 2 250 4.8 4.8 0.00 0.00 0.00 92 1017.0
20260508123704 2 250 4.8 4.8 0.00 0.00 0.00 92 1017.0
20260508122705 1 250 4.8 4.8 0.00 0.00 0.00 93 1016.9
20260508122204 1 250 4.8 4.8 0.00 0.00 0.00 93 1016.9
20260508121705 1 250 4.8 4.8 0.00 0.00 0.00 93 1016.9
20260508121205 1 250 4.8 4.8 0.00 0.00 0.00 93 1016.8
20260508120705 1 250 4.8 4.8 0.00 0.00 0.00 93 1016.7
20260508120204 1 252 9.7 12.9 0.00 0.00 0.00 93 1016.7
20260508115705 1 270 12.9 12.9 0.00 0.00 0.00 93 1016.6
20260508115205 1 270 12.9 12.9 0.00 0.00 0.00 93 1016.5
20260508114205 0 270 12.9 12.9 0.00 0.00 0.00 93 1016.4
20260508113705 0 270 12.9 12.9 0.00 0.00 0.00 93 1016.4
20260508113205 0 270 12.9 12.9 0.00 0.00 0.00 93 1016.3
20260508112705 0 270 12.9 12.9 0.00 0.00 0.00 93 1016.2
20260508111705 0 270 12.9 12.9 0.00 0.00 0.00 93 1016.0
20260508111205 0 270 12.9 12.9 0.00 0.00 0.00 93 1016.0
20260508110704 0 270 12.9 12.9 0.00 0.00 0.00 93 1015.8
20260508110204 0 270 12.9 12.9 0.00 0.00 0.00 93 1015.7
20260508105705 0 270 12.9 12.9 0.00 0.00 0.00 93 1015.7
20260508105205 0 270 12.9 12.9 0.00 0.00 0.00 93 1015.7
20260508104705 0 270 12.9 12.9 0.00 0.00 0.00 93 1015.6
20260508104205 0 270 12.9 12.9 0.00 0.00 0.00 93 1015.5
20260508103704 0 270 12.9 12.9 0.00 0.00 0.00 93 1015.3
20260508102705 0 270 12.9 12.9 0.00 0.00 0.00 93 1015.2
20260508101205 0 270 12.9 12.9 0.00 0.00 0.00 92 1015.0
20260508100705 0 270 11.3 12.9 0.00 0.00 0.00 92 1015.0
20260508100205 1 270 12.9 12.9 0.00 0.00 0.00 92 1015.1
20260508095705 1 270 12.9 12.9 0.00 0.00 0.00 92 1015.3
20260508095205 1 270 12.9 12.9 0.00 0.00 0.00 92 1015.4
20260508094705 1 270 12.9 12.9 0.00 0.00 0.00 92 1015.4
20260508094204 1 270 12.9 12.9 0.00 0.00 0.00 92 1015.4
20260508093704 1 270 12.9 12.9 0.00 0.00 0.00 92 1015.4
20260508093205 1 270 12.9 12.9 0.00 0.00 0.00 92 1015.4
20260508092704 1 270 12.9 12.9 0.00 0.00 0.00 92 1015.5
20260508091705 1 270 12.9 12.9 0.00 0.03 0.00 92 1015.6
20260508091205 1 270 12.9 12.9 0.00 0.03 0.00 92 1015.6
20260508090705 1 270 12.9 12.9 0.00 0.03 0.00 92 1015.4
20260508090205 1 270 12.9 12.9 0.00 0.03 0.00 92 1015.3
20260508085205 1 270 12.9 12.9 0.00 0.03 0.00 92 1015.5
20260508084704 1 270 12.9 12.9 0.00 0.03 0.00 92 1015.4
20260508084204 1 270 12.9 12.9 0.00 0.03 0.00 92 1015.4
20260508083205 1 270 12.9 12.9 0.00 0.03 0.00 92 1015.4
20260508082705 2 270 12.9 12.9 0.00 0.03 0.00 92 1015.3
20260508082205 2 270 12.9 12.9 0.00 0.05 0.00 92 1015.2
20260508081705 2 270 12.9 12.9 0.00 0.05 0.00 92 1015.3
20260508081205 2 270 12.9 12.9 0.00 0.05 0.00 92 1015.3
20260508080705 2 270 12.9 12.9 0.00 0.05 0.00 92 1015.3
20260508080204 2 270 12.9 12.9 0.00 0.05 0.00 92 1015.3
20260508075705 2 270 12.9 12.9 0.00 0.05 0.00 92 1015.6
20260508074704 2 270 12.9 12.9 0.00 0.05 0.00 92 1015.6
20260508074205 2 270 12.9 12.9 0.00 0.05 0.00 91 1015.5
20260508073205 2 270 12.9 12.9 0.00 0.05 0.00 91 1015.4
20260508072204 3 270 12.9 12.9 0.00 0.05 0.00 91 1015.6
20260508071704 3 270 12.9 12.9 0.00 0.05 0.00 91 1015.7
20260508071205 3 270 12.9 12.9 0.00 0.05 0.00 91 1015.6
20260508065705 3 270 12.9 12.9 0.00 0.05 0.00 91 1015.6
20260508065204 3 270 12.9 12.9 0.00 0.05 0.00 90 1015.6
20260508064704 3 270 12.9 12.9 0.00 0.05 0.00 91 1015.5
20260508064205 3 270 12.9 12.9 0.00 0.05 0.00 91 1015.3
20260508063205 3 270 12.9 12.9 0.00 0.05 0.00 90 1015.6
20260508062705 4 270 12.9 12.9 0.00 0.05 0.00 90 1015.5
20260508062206 4 270 12.9 12.9 0.00 0.05 0.00 90 1015.6
20260508061704 4 270 12.9 12.9 0.00 0.05 0.00 90 1015.4
20260508061204 4 270 12.9 12.9 0.00 0.05 0.00 90 1015.4
20260508060704 5 270 12.9 12.9 0.00 0.05 0.00 89 1015.4
20260508055705 5 270 12.9 12.9 0.00 0.05 0.00 89 1015.6
20260508055204 5 270 12.9 12.9 0.00 0.05 0.00 89 1015.5
20260508054705 5 270 12.9 12.9 0.00 0.05 0.00 89 1015.5
20260508054205 5 270 12.9 12.9 0.00 0.05 0.00 89 1015.5
20260508053205 5 270 12.9 12.9 0.00 0.05 0.00 88 1015.5
20260508052705 6 270 12.9 12.9 0.00 0.05 0.00 88 1015.4
20260508052204 6 270 12.9 12.9 0.00 0.05 0.00 88 1015.4
20260508051705 6 270 12.9 12.9 0.00 0.08 0.00 88 1015.4
20260508051205 6 270 12.9 12.9 0.00 0.08 0.00 88 1015.4
20260508050705 6 270 12.9 12.9 0.00 0.08 0.00 88 1015.3
20260508050204 6 270 12.9 12.9 0.00 0.08 0.00 88 1015.1
20260508045705 6 270 12.9 12.9 0.00 0.08 0.00 88 1015.3
20260508045204 7 270 12.9 12.9 0.00 0.08 0.00 88 1015.1
20260508044704 7 270 12.9 12.9 0.00 0.08 0.00 88 1015.1
20260508044204 7 270 12.9 12.9 0.00 0.08 0.00 87 1015.1
20260508043705 7 270 12.9 12.9 0.00 0.08 0.00 87 1015.1
20260508043205 7 270 12.9 12.9 0.00 0.08 0.00 88 1015.2
20260508042204 7 270 12.9 12.9 0.00 0.08 0.00 87 1015.0
20260508041204 7 270 12.9 12.9 0.00 0.08 0.00 86 1014.9
20260508040707 7 270 12.9 12.9 0.00 0.08 0.00 87 1014.8
20260508040205 7 270 12.9 12.9 0.00 0.08 0.00 87 1014.7
20260508035704 8 270 12.9 12.9 0.00 0.08 0.08 87 1014.8
20260508035204 8 270 12.9 12.9 0.00 0.08 0.08 86 1014.8
20260508034705 8 270 12.9 12.9 0.00 0.08 0.08 87 1014.8
20260508034204 8 270 12.9 12.9 0.00 0.08 0.08 87 1014.8
20260508033704 8 270 12.9 12.9 0.00 0.08 0.08 86 1014.8
20260508033204 8 270 12.9 12.9 0.00 0.08 0.08 88 1014.8
20260508031704 8 270 12.9 12.9 0.00 0.08 0.08 88 1014.6
20260508031204 8 270 12.9 12.9 0.00 0.10 0.08 89 1014.4
20260508030704 8 270 12.9 12.9 0.00 0.10 0.08 88 1014.3
20260508030204 8 270 12.9 12.9 0.00 0.10 0.08 88 1014.2
20260508025704 8 270 12.9 12.9 0.00 0.10 0.08 88 1014.3
20260508025205 8 270 12.9 12.9 0.00 0.10 0.08 88 1014.3
20260508024705 8 270 12.9 12.9 0.00 0.13 0.08 88 1014.4
20260508024204 8 270 12.9 12.9 0.00 0.13 0.08 89 1014.3
20260508023705 8 270 12.9 12.9 0.00 0.13 0.08 89 1014.4
20260508022705 8 270 12.9 12.9 0.00 0.15 0.08 90 1014.2
20260508022205 7 270 12.9 12.9 0.00 0.15 0.08 91 1014.2
20260508021705 7 270 12.9 12.9 0.00 0.15 0.08 90 1014.1
20260508021204 7 270 12.9 12.9 0.00 0.15 0.08 91 1014.0
20260508020705 7 270 12.9 12.9 0.00 0.15 0.08 91 1014.0
20260508020204 7 270 12.9 12.9 0.00 0.18 0.08 90 1014.0
20260508015705 7 270 12.9 12.9 0.00 0.18 0.08 90 1013.9
20260508015205 7 270 12.9 12.9 0.00 0.18 0.08 90 1013.9
20260508014705 7 270 12.9 12.9 0.00 0.18 0.08 90 1013.7
20260508014204 7 270 12.9 12.9 0.00 0.18 0.08 90 1013.7
20260508013204 7 270 12.9 12.9 0.00 0.20 0.08 89 1013.6
20260508012705 7 270 12.9 12.9 0.00 0.20 0.08 89 1013.5
20260508012204 7 270 12.9 12.9 0.00 0.20 0.08 88 1013.4
20260508011704 7 270 12.9 12.9 0.00 0.20 0.08 88 1013.3
20260508011204 7 270 12.9 12.9 0.00 0.23 0.08 87 1013.2
20260508010705 7 270 12.9 12.9 0.00 0.23 0.08 87 1013.1
20260508010204 7 270 12.9 12.9 0.00 0.23 0.08 86 1012.9
20260508005704 7 270 12.9 12.9 0.00 0.23 0.08 85 1012.9
20260508005205 7 270 12.9 12.9 0.00 0.23 0.08 85 1013.0
20260508004705 7 270 12.9 12.9 0.00 0.23 0.08 85 1013.0
20260508004205 8 270 12.9 12.9 0.00 0.23 0.08 84 1012.9
20260508003704 8 270 12.9 12.9 0.00 0.23 0.08 84 1012.9
20260508003205 8 270 12.9 12.9 0.00 0.23 0.08 83 1013.0
20260508002705 8 270 12.9 12.9 0.00 0.23 0.08 83 1012.9
20260508002205 8 270 12.9 12.9 0.00 0.23 0.08 82 1012.8
20260508001704 8 270 12.9 12.9 0.00 0.23 0.08 82 1012.8
20260508000704 8 270 12.9 12.9 0.00 0.23 0.08 81 1012.9
20260507235704 8 270 12.9 12.9 0.00 0.23 0.08 80 1013.0
20260507235204 9 270 12.9 12.9 0.00 0.23 0.08 80 1013.0
20260507234704 9 270 12.9 12.9 0.00 0.23 0.08 79 1013.1
20260507233705 9 270 12.9 12.9 0.00 0.23 0.08 78 1013.0
20260507232704 10 270 12.9 12.9 0.00 0.23 0.08 77 1012.9
20260507232205 10 270 12.9 12.9 0.00 0.23 0.08 76 1012.9
20260507231704 10 270 12.9 12.9 0.00 0.23 0.08 77 1012.9
20260507231204 10 270 12.9 12.9 0.00 0.23 0.08 77 1012.9
20260507230705 10 270 12.9 12.9 0.00 0.23 0.08 76 1012.9
20260507230204 10 270 16.1 37.0 0.00 0.23 0.08 76 1013.0
20260507225705 10 270 20.9 37.0 0.00 0.23 0.08 76 1012.9
20260507225205 10 270 20.9 37.0 0.00 0.23 0.08 78 1012.8
20260507224705 10 270 20.9 37.0 0.00 0.23 0.08 78 1012.7
20260507224204 10 270 20.9 37.0 0.00 0.23 0.08 77 1012.7
20260507223704 10 270 20.9 37.0 0.00 0.23 0.08 78 1012.4
20260507223204 10 270 20.9 37.0 0.00 0.23 0.08 76 1012.3
20260507222205 10 270 20.9 37.0 0.00 0.23 0.08 74 1012.2
20260507221704 10 270 20.9 37.0 0.00 0.23 0.08 75 1012.1
20260507221205 10 270 20.9 37.0 0.00 0.23 0.08 77 1012.1
20260507220704 10 270 20.9 37.0 0.00 0.23 0.08 77 1012.0
20260507220204 10 270 14.5 37.0 0.00 0.23 0.08 76 1011.9
20260507215704 10 290 9.7 9.7 0.00 0.23 0.08 77 1012.2
20260507215204 10 290 9.7 9.7 0.00 0.23 0.08 78 1012.0
20260507213704 10 290 9.7 9.7 0.00 0.23 0.08 78 1011.9
20260507213204 10 290 9.7 9.7 0.00 0.23 0.08 80 1011.7
20260507212204 9 290 9.7 9.7 0.00 0.23 0.08 82 1011.6
20260507211704 9 290 9.7 9.7 0.00 0.23 0.08 83 1011.7
20260507211204 8 290 9.7 9.7 0.00 0.23 0.08 83 1011.7
20260507210705 8 290 9.7 9.7 0.00 0.23 0.08 83 1011.6
20260507210204 8 289 9.7 11.3 0.00 0.23 0.08 83 1011.7
20260507205704 8 280 11.3 11.3 0.00 0.23 0.08 83 1011.9
20260507205204 9 280 11.3 11.3 0.00 0.23 0.08 83 1012.0
20260507203705 10 280 11.3 11.3 0.00 0.23 0.08 84 1011.8
20260507202705 10 280 11.3 11.3 0.00 0.23 0.08 85 1011.5
20260507202204 10 280 11.3 11.3 0.00 0.23 0.08 84 1011.4
20260507201705 10 280 11.3 11.3 0.00 0.23 0.08 85 1011.3
20260507201205 10 280 11.3 11.3 0.00 0.23 0.08 84 1011.3
20260507200705 10 280 11.3 11.3 0.00 0.23 0.08 84 1011.2
20260507200204 10 281 9.7 11.3 0.00 0.23 0.08 85 1011.4
20260507195704 10 300 9.7 9.7 0.00 0.23 0.08 85 1011.4
20260507195204 10 300 9.7 9.7 0.00 0.23 0.08 84 1011.3
20260507194705 10 300 9.7 9.7 0.00 0.23 0.08 84 1011.3
20260507194204 10 300 9.7 9.7 0.00 0.23 0.08 83 1011.2
20260507193705 10 300 9.7 9.7 0.00 0.23 0.08 83 1011.3
20260507192704 10 300 9.7 9.7 0.00 0.23 0.08 84 1011.3
20260507192205 10 300 9.7 9.7 0.00 0.23 0.08 85 1011.4
20260507191704 10 300 9.7 9.7 0.00 0.23 0.08 85 1011.4
20260507191204 10 300 9.7 9.7 0.00 0.23 0.08 84 1011.3
20260507190204 11 298 11.3 14.5 0.00 0.23 0.08 84 1011.5
20260507185705 11 280 14.5 14.5 0.00 0.23 0.08 84 1011.7
20260507185205 11 280 14.5 14.5 0.00 0.23 0.08 83 1011.8
20260507184705 11 280 14.5 14.5 0.00 0.23 0.08 82 1011.6
20260507184204 12 280 14.5 14.5 0.00 0.23 0.08 82 1011.7
20260507182705 12 280 14.5 14.5 0.00 0.23 0.08 80 1011.5
20260507182204 12 280 14.5 14.5 0.00 0.23 0.08 79 1011.5
20260507181207 13 280 14.5 14.5 0.00 0.23 0.08 79 1011.6
20260507180705 13 280 14.5 14.5 0.00 0.23 0.08 76 1011.5
20260507180204 14 282 14.5 14.5 0.00 0.23 0.08 76 1011.6
20260507175204 14 330 12.9 12.9 0.00 0.23 0.08 78 1011.5
20260507174704 14 330 12.9 12.9 0.00 0.23 0.08 80 1011.5
20260507173705 14 330 12.9 12.9 0.00 0.23 0.08 77 1011.4
20260507173205 14 330 12.9 12.9 0.00 0.23 0.08 78 1011.5
20260507172704 14 330 12.9 12.9 0.00 0.23 0.08 79 1011.4
20260507172204 14 330 12.9 12.9 0.00 0.23 0.08 79 1011.4
20260507171705 14 330 12.9 12.9 0.00 0.23 0.08 79 1011.4
20260507171204 13 330 12.9 12.9 0.00 0.23 0.08 80 1011.4
20260507170704 13 330 12.9 12.9 0.00 0.23 0.08 80 1011.3
20260507170207 14 329 9.7 12.9 0.00 0.23 0.08 79 1011.4
20260507165204 15 290 8.0 8.0 0.00 0.25 0.08 78 1011.3
20260507164704 15 290 8.0 8.0 0.00 0.25 0.08 77 1011.3
20260507164205 15 290 8.0 8.0 0.00 0.25 0.08 76 1011.3
20260507163704 15 290 8.0 8.0 0.00 0.25 0.08 78 1011.1
20260507163204 15 290 8.0 8.0 0.00 0.25 0.08 78 1011.2
20260507162704 15 290 8.0 8.0 0.00 0.25 0.08 77 1011.2
20260507162204 15 290 8.0 8.0 0.00 0.25 0.08 79 1011.2
20260507161704 15 290 8.0 8.0 0.00 0.25 0.08 78 1011.1
20260507161204 15 290 8.0 8.0 0.00 0.25 0.08 78 1011.0
20260507160705 15 290 8.0 8.0 0.00 0.25 0.08 78 1011.1
20260507160205 15 290 9.7 11.3 0.00 0.25 0.08 80 1011.2
20260507155704 14 290 11.3 11.3 0.00 0.25 0.08 81 1011.2
20260507155204 15 290 11.3 11.3 0.00 0.25 0.08 80 1011.3
20260507154705 14 290 11.3 11.3 0.00 0.25 0.08 83 1011.2
20260507154205 14 290 11.3 11.3 0.00 0.25 0.08 80 1011.2
20260507153705 14 290 11.3 11.3 0.00 0.25 0.08 80 1011.3
20260507153204 14 290 11.3 11.3 0.00 0.25 0.08 81 1011.3
20260507152705 15 290 11.3 11.3 0.00 0.25 0.08 82 1011.2
20260507152205 15 290 11.3 11.3 0.00 0.25 0.08 81 1011.2
20260507151204 15 290 11.3 11.3 0.00 0.25 0.08 82 1011.2
20260507150705 15 290 11.3 11.3 0.00 0.25 0.08 83 1011.2
20260507150205 14 290 9.7 11.3 0.00 0.25 0.08 84 1011.1